MAX VALIER SAT (42778 NORAD) Tracking and Keplerian Element Data

This shows tracking and keplerian element data for the satellite.

Feedback or suggestion? Click here.




ElementValue
Catalog42778
NameMAX VALIER SAT
Epoch Orbit29238
Epoch Day269.85005978
Epoch Year2022
RAAN307.5097
Inclination97.1956
Eccentricity0.0009276
Argument of Perigee334.7073
Mean Anonmoly25.3711
Mean Motion15.28400939
Decay Rate7.865E-05
L11 42778U 17036P 22269.85005978 .00007865 00000+0 28667-3 0 9995
L22 42778 97.1956 307.5097 0009276 334.7073 25.3711 15.28400939292383

Live tracking and technical data element details for MAX VALIER SAT (NORAD 42778). MAX VALIER SAT can be tracked NOW for your location showing map with azimuth and elevation plus other details from your city location.

Track the satellite on the map from your city or location and see movement details for azimuth, elevation, latitude, longitude, range, height, and movement on the map or in text.







IsCatalogInMostPopularTable: catalog: 42778, numindb: 642
Update: records affected: 1



GetName: 42778 MAX VALIER SAT

Hit Count: updated at: Wed, 28 Sep 2022 23:37:33 GMT